Wetterdaten: Freitag, 16.10.2015
Datum Zeit Temp. A. Feuchte A. Luftdruck Regen Wind Richtung Richtung Sonnenschein ET UV Solar Taupunkt Windchill Windben Empfang
16.10.2015 00:00 6,7 C 91 % 1014,2 hPa 0,0 l/m 3,2 km/h (1 Bft) W 274 0 min 0,000 mm 0,0 UV-I 0 W/m 5,3 C 6,7 C 9,7 km/h (2 Bft) 100,00 %
16.10.2015 00:05 6,7 C 91 % 1014,1 hPa 0,0 l/m 4,3 km/h (1 Bft) W-NW 302 0 min 0,000 mm 0,0 UV-I 0 W/m 5,3 C 6,7 C 11,3 km/h (2 Bft) 97,17 %
16.10.2015 00:10 6,7 C 91 % 1014,1 hPa 0,0 l/m 4,1 km/h (1 Bft) W 262 0 min 0,000 mm 0,0 UV-I 0 W/m 5,3 C 6,7 C 11,3 km/h (2 Bft) 99,17 %
16.10.2015 00:15 6,6 C 91 % 1014,2 hPa 0,0 l/m 3,2 km/h (1 Bft) W 269 0 min 0,000 mm 0,0 UV-I 0 W/m 5,2 C 6,6 C 6,4 km/h (2 Bft) 100,00 %
16.10.2015 00:20 6,6 C 91 % 1014,2 hPa 0,0 l/m 3,3 km/h (1 Bft) W-NW 290 0 min 0,000 mm 0,0 UV-I 0 W/m 5,2 C 6,6 C 9,7 km/h (2 Bft) 100,00 %
16.10.2015 00:25 6,6 C 91 % 1014,2 hPa 0,0 l/m 3,8 km/h (1 Bft) W 275 0 min 0,000 mm 0,0 UV-I 0 W/m 5,2 C 6,6 C 11,3 km/h (2 Bft) 100,00 %
16.10.2015 00:30 6,6 C 91 % 1014,3 hPa 0,0 l/m 4,0 km/h (1 Bft) SW 229 0 min 0,000 mm 0,0 UV-I 0 W/m 5,2 C 6,6 C 8,0 km/h (2 Bft) 100,00 %
16.10.2015 00:35 6,6 C 91 % 1014,4 hPa 0,0 l/m 4,4 km/h (1 Bft) W 265 0 min 0,000 mm 0,0 UV-I 0 W/m 5,2 C 6,6 C 11,3 km/h (2 Bft) 99,12 %
16.10.2015 00:40 6,6 C 91 % 1014,4 hPa 0,0 l/m 3,7 km/h (1 Bft) W 266 0 min 0,000 mm 0,0 UV-I 0 W/m 5,2 C 6,6 C 9,7 km/h (2 Bft) 99,19 %
16.10.2015 00:45 6,6 C 92 % 1014,4 hPa 0,0 l/m 2,5 km/h (1 Bft) W 273 0 min 0,000 mm 0,0 UV-I 0 W/m 5,4 C 6,6 C 4,8 km/h (1 Bft) 100,00 %
16.10.2015 00:50 6,6 C 92 % 1014,5 hPa 0,0 l/m 3,8 km/h (1 Bft) W 272 0 min 0,000 mm 0,0 UV-I 0 W/m 5,4 C 6,6 C 6,4 km/h (2 Bft) 100,00 %
16.10.2015 00:55 6,6 C 92 % 1014,5 hPa 0,0 l/m 2,9 km/h (1 Bft) W 265 0 min 0,000 mm 0,0 UV-I 0 W/m 5,4 C 6,6 C 6,4 km/h (2 Bft) 100,00 %
16.10.2015 01:00 6,6 C 91 % 1014,5 hPa 0,0 l/m 4,8 km/h (1 Bft) W 275 0 min 0,000 mm 0,0 UV-I 0 W/m 5,2 C 6,6 C 11,3 km/h (2 Bft) 99,17 %
16.10.2015 01:05 6,6 C 90 % 1014,6 hPa 0,0 l/m 5,8 km/h (2 Bft) W 281 0 min 0,000 mm 0,0 UV-I 0 W/m 5,1 C 6,6 C 12,9 km/h (3 Bft) 99,13 %
16.10.2015 01:10 6,5 C 90 % 1014,5 hPa 0,0 l/m 5,4 km/h (1 Bft) W-SW 251 0 min 0,000 mm 0,0 UV-I 0 W/m 5,0 C 6,5 C 12,9 km/h (3 Bft) 100,00 %
16.10.2015 01:15 6,5 C 90 % 1014,6 hPa 0,0 l/m 5,9 km/h (2 Bft) W 263 0 min 0,000 mm 0,0 UV-I 0 W/m 5,0 C 6,5 C 12,9 km/h (3 Bft) 100,00 %
16.10.2015 01:20 6,5 C 90 % 1014,7 hPa 0,0 l/m 4,7 km/h (1 Bft) W 271 0 min 0,000 mm 0,0 UV-I 0 W/m 5,0 C 6,5 C 9,7 km/h (2 Bft) 99,11 %
16.10.2015 01:25 6,4 C 90 % 1014,8 hPa 0,0 l/m 4,7 km/h (1 Bft) W-SW 254 0 min 0,000 mm 0,0 UV-I 0 W/m 4,9 C 6,4 C 11,3 km/h (2 Bft) 99,21 %
16.10.2015 01:30 6,4 C 90 % 1014,7 hPa 0,0 l/m 3,6 km/h (1 Bft) W-SW 257 0 min 0,000 mm 0,0 UV-I 0 W/m 4,9 C 6,4 C 8,0 km/h (2 Bft) 99,08 %
16.10.2015 01:35 6,4 C 90 % 1014,8 hPa 0,0 l/m 3,6 km/h (1 Bft) W 271 0 min 0,000 mm 0,0 UV-I 0 W/m 4,9 C 6,4 C 9,7 km/h (2 Bft) 99,15 %
16.10.2015 01:40 6,4 C 90 % 1014,8 hPa 0,0 l/m 3,2 km/h (1 Bft) W 281 0 min 0,000 mm 0,0 UV-I 0 W/m 4,9 C 6,4 C 6,4 km/h (2 Bft) 100,00 %
16.10.2015 01:45 6,3 C 90 % 1014,8 hPa 0,0 l/m 3,8 km/h (1 Bft) W-NW 295 0 min 0,000 mm 0,0 UV-I 0 W/m 4,8 C 6,3 C 9,7 km/h (2 Bft) 99,21 %
16.10.2015 01:50 6,3 C 91 % 1014,7 hPa 0,0 l/m 3,3 km/h (1 Bft) W-SW 254 0 min 0,000 mm 0,0 UV-I 0 W/m 4,9 C 6,3 C 6,4 km/h (2 Bft) 99,11 %
16.10.2015 01:55 6,3 C 91 % 1014,6 hPa 0,0 l/m 3,7 km/h (1 Bft) W 279 0 min 0,000 mm 0,0 UV-I 0 W/m 4,9 C 6,3 C 6,4 km/h (2 Bft) 99,10 %
16.10.2015 02:00 6,3 C 91 % 1014,8 hPa 0,0 l/m 3,6 km/h (1 Bft) W-NW 292 0 min 0,000 mm 0,0 UV-I 0 W/m 4,9 C 6,3 C 11,3 km/h (2 Bft) 99,13 %
16.10.2015 02:05 6,3 C 91 % 1014,8 hPa 0,0 l/m 2,1 km/h (1 Bft) W 267 0 min 0,000 mm 0,0 UV-I 0 W/m 4,9 C 6,3 C 6,4 km/h (2 Bft) 99,22 %
16.10.2015 02:10 6,3 C 91 % 1014,8 hPa 0,0 l/m 3,8 km/h (1 Bft) W 269 0 min 0,000 mm 0,0 UV-I 0 W/m 4,9 C 6,3 C 9,7 km/h (2 Bft) 99,11 %
16.10.2015 02:15 6,3 C 92 % 1014,8 hPa 0,0 l/m 3,0 km/h (1 Bft) NW 309 0 min 0,000 mm 0,0 UV-I 0 W/m 5,1 C 6,3 C 6,4 km/h (2 Bft) 100,00 %
16.10.2015 02:20 6,3 C 92 % 1014,8 hPa 0,0 l/m 2,9 km/h (1 Bft) W-SW 247 0 min 0,000 mm 0,0 UV-I 0 W/m 5,1 C 6,3 C 9,7 km/h (2 Bft) 100,00 %
16.10.2015 02:25 6,3 C 92 % 1014,8 hPa 0,0 l/m 2,8 km/h (1 Bft) SW 225 0 min 0,000 mm 0,0 UV-I 0 W/m 5,1 C 6,3 C 6,4 km/h (2 Bft) 100,00 %
16.10.2015 02:30 6,2 C 92 % 1014,8 hPa 0,0 l/m 3,0 km/h (1 Bft) W 273 0 min 0,000 mm 0,0 UV-I 0 W/m 5,0 C 6,2 C 9,7 km/h (2 Bft) 98,35 %
16.10.2015 02:35 6,2 C 92 % 1014,8 hPa 0,0 l/m 2,5 km/h (1 Bft) W 277 0 min 0,000 mm 0,0 UV-I 0 W/m 5,0 C 6,2 C 8,0 km/h (2 Bft) 98,25 %
16.10.2015 02:40 6,2 C 92 % 1014,8 hPa 0,0 l/m 2,1 km/h (1 Bft) W 277 0 min 0,000 mm 0,0 UV-I 0 W/m 5,0 C 6,2 C 4,8 km/h (1 Bft) 100,00 %
16.10.2015 02:45 6,2 C 92 % 1014,7 hPa 0,0 l/m 3,9 km/h (1 Bft) W-SW 240 0 min 0,000 mm 0,0 UV-I 0 W/m 5,0 C 6,2 C 11,3 km/h (2 Bft) 99,11 %
16.10.2015 02:50 6,2 C 92 % 1014,6 hPa 0,0 l/m 4,1 km/h (1 Bft) W 265 0 min 0,000 mm 0,0 UV-I 0 W/m 5,0 C 6,2 C 9,7 km/h (2 Bft) 100,00 %
16.10.2015 02:55 6,2 C 92 % 1014,6 hPa 0,0 l/m 2,6 km/h (1 Bft) W 281 0 min 0,000 mm 0,0 UV-I 0 W/m 5,0 C 6,2 C 4,8 km/h (1 Bft) 99,13 %
16.10.2015 03:00 6,2 C 92 % 1014,6 hPa 0,0 l/m 2,9 km/h (1 Bft) W-SW 238 0 min 0,000 mm 0,0 UV-I 0 W/m 5,0 C 6,2 C 11,3 km/h (2 Bft) 100,00 %
16.10.2015 03:05 6,2 C 93 % 1014,7 hPa 0,0 l/m 2,0 km/h (1 Bft) W-SW 240 0 min 0,000 mm 0,0 UV-I 0 W/m 5,2 C 6,2 C 6,4 km/h (2 Bft) 98,21 %
16.10.2015 03:10 6,2 C 93 % 1014,8 hPa 0,0 l/m 1,4 km/h (1 Bft) W-SW 255 0 min 0,000 mm 0,0 UV-I 0 W/m 5,2 C 6,2 C 3,2 km/h (1 Bft) 99,21 %
16.10.2015 03:15 6,2 C 93 % 1014,7 hPa 0,0 l/m 0,8 km/h (0 Bft) W-SW 257 0 min 0,000 mm 0,0 UV-I 0 W/m 5,2 C 6,2 C 3,2 km/h (1 Bft) 100,00 %
16.10.2015 03:20 6,2 C 93 % 1014,7 hPa 0,0 l/m 1,7 km/h (1 Bft) W-SW 252 0 min 0,000 mm 0,0 UV-I 0 W/m 5,2 C 6,2 C 3,2 km/h (1 Bft) 98,31 %
16.10.2015 03:25 6,2 C 93 % 1014,8 hPa 0,0 l/m 1,8 km/h (1 Bft) W 261 0 min 0,000 mm 0,0 UV-I 0 W/m 5,2 C 6,2 C 4,8 km/h (1 Bft) 99,13 %
16.10.2015 03:30 6,2 C 93 % 1014,7 hPa 0,0 l/m 2,5 km/h (1 Bft) W-SW 258 0 min 0,000 mm 0,0 UV-I 0 W/m 5,2 C 6,2 C 6,4 km/h (2 Bft) 98,37 %
16.10.2015 03:35 6,2 C 93 % 1014,9 hPa 0,0 l/m 1,8 km/h (1 Bft) S-SW 211 0 min 0,000 mm 0,0 UV-I 0 W/m 5,2 C 6,2 C 6,4 km/h (2 Bft) 100,00 %
16.10.2015 03:40 6,2 C 93 % 1014,9 hPa 0,0 l/m 1,9 km/h (1 Bft) W 265 0 min 0,000 mm 0,0 UV-I 0 W/m 5,2 C 6,2 C 4,8 km/h (1 Bft) 100,00 %
16.10.2015 03:45 6,2 C 92 % 1014,9 hPa 0,0 l/m 2,5 km/h (1 Bft) SW 232 0 min 0,000 mm 0,0 UV-I 0 W/m 5,0 C 6,2 C 8,0 km/h (2 Bft) 99,15 %
16.10.2015 03:50 6,2 C 92 % 1014,9 hPa 0,0 l/m 2,8 km/h (1 Bft) W-SW 244 0 min 0,000 mm 0,0 UV-I 0 W/m 5,0 C 6,2 C 4,8 km/h (1 Bft) 99,17 %
16.10.2015 03:55 6,2 C 93 % 1014,8 hPa 0,0 l/m 1,4 km/h (1 Bft) W 259 0 min 0,000 mm 0,0 UV-I 0 W/m 5,2 C 6,2 C 3,2 km/h (1 Bft) 100,00 %
16.10.2015 04:00 6,2 C 93 % 1014,8 hPa 0,0 l/m 2,0 km/h (1 Bft) W-SW 254 0 min 0,000 mm 0,0 UV-I 0 W/m 5,2 C 6,2 C 4,8 km/h (1 Bft) 100,00 %
16.10.2015 04:05 6,2 C 93 % 1014,8 hPa 0,0 l/m 1,3 km/h (1 Bft) NW 309 0 min 0,000 mm 0,0 UV-I 0 W/m 5,2 C 6,2 C 3,2 km/h (1 Bft) 99,06 %
16.10.2015 04:10 6,1 C 93 % 1014,8 hPa 0,0 l/m 1,9 km/h (1 Bft) W 281 0 min 0,000 mm 0,0 UV-I 0 W/m 5,1 C 6,1 C 3,2 km/h (1 Bft) 100,00 %
16.10.2015 04:15 6,1 C 93 % 1014,8 hPa 0,0 l/m 1,7 km/h (1 Bft) W 263 0 min 0,000 mm 0,0 UV-I 0 W/m 5,1 C 6,1 C 3,2 km/h (1 Bft) 100,00 %
16.10.2015 04:20 6,1 C 93 % 1014,9 hPa 0,0 l/m 1,4 km/h (1 Bft) W 264 0 min 0,000 mm 0,0 UV-I 0 W/m 5,1 C 6,1 C 4,8 km/h (1 Bft) 100,00 %
16.10.2015 04:25 6,0 C 92 % 1014,8 hPa 0,0 l/m 1,2 km/h (1 Bft) W-NW 298 0 min 0,000 mm 0,0 UV-I 0 W/m 4,8 C 6,0 C 3,2 km/h (1 Bft) 99,07 %
16.10.2015 04:30 5,9 C 92 % 1014,9 hPa 0,0 l/m 2,1 km/h (1 Bft) W-SW 250 0 min 0,000 mm 0,0 UV-I 0 W/m 4,7 C 5,9 C 4,8 km/h (1 Bft) 99,19 %
16.10.2015 04:35 5,9 C 93 % 1015,0 hPa 0,0 l/m 0,8 km/h (0 Bft) W-SW 250 0 min 0,000 mm 0,0 UV-I 0 W/m 4,9 C 5,9 C 3,2 km/h (1 Bft) 99,11 %
16.10.2015 04:40 5,9 C 93 % 1015,0 hPa 0,0 l/m 0,5 km/h (0 Bft) W-SW 250 0 min 0,000 mm 0,0 UV-I 0 W/m 4,9 C 5,9 C 3,2 km/h (1 Bft) 99,12 %
16.10.2015 04:45 5,9 C 93 % 1015,0 hPa 0,0 l/m 1,0 km/h (0 Bft) W-SW 239 0 min 0,000 mm 0,0 UV-I 0 W/m 4,9 C 5,9 C 3,2 km/h (1 Bft) 100,00 %
16.10.2015 04:50 5,9 C 93 % 1015,0 hPa 0,0 l/m 0,0 km/h (0 Bft) W-SW 239 0 min 0,000 mm 0,0 UV-I 0 W/m 4,9 C 5,9 C 0,0 km/h (0 Bft) 99,10 %
16.10.2015 04:55 5,9 C 93 % 1015,1 hPa 0,0 l/m 1,0 km/h (0 Bft) W-SW 240 0 min 0,000 mm 0,0 UV-I 0 W/m 4,9 C 5,9 C 3,2 km/h (1 Bft) 99,17 %
16.10.2015 05:00 5,9 C 93 % 1015,1 hPa 0,0 l/m 1,2 km/h (1 Bft) W-NW 287 0 min 0,000 mm 0,0 UV-I 0 W/m 4,9 C 5,9 C 3,2 km/h (1 Bft) 97,52 %
16.10.2015 05:05 5,8 C 93 % 1015,2 hPa 0,0 l/m 1,3 km/h (1 Bft) W-NW 284 0 min 0,000 mm 0,0 UV-I 0 W/m 4,8 C 5,8 C 3,2 km/h (1 Bft) 99,10 %
16.10.2015 05:10 5,9 C 93 % 1015,1 hPa 0,0 l/m 0,7 km/h (0 Bft) W-NW 283 0 min 0,000 mm 0,0 UV-I 0 W/m 4,9 C 5,9 C 3,2 km/h (1 Bft) 99,11 %
16.10.2015 05:15 5,9 C 93 % 1015,2 hPa 0,0 l/m 0,2 km/h (0 Bft) W 259 0 min 0,000 mm 0,0 UV-I 0 W/m 4,9 C 5,9 C 3,2 km/h (1 Bft) 100,00 %
16.10.2015 05:20 5,9 C 93 % 1015,2 hPa 0,0 l/m 0,1 km/h (0 Bft) W 259 0 min 0,000 mm 0,0 UV-I 0 W/m 4,9 C 5,9 C 1,6 km/h (1 Bft) 99,22 %
16.10.2015 05:25 5,8 C 93 % 1015,1 hPa 0,0 l/m 1,3 km/h (1 Bft) W 266 0 min 0,000 mm 0,0 UV-I 0 W/m 4,8 C 5,8 C 3,2 km/h (1 Bft) 100,00 %
16.10.2015 05:30 5,8 C 93 % 1015,0 hPa 0,0 l/m 0,4 km/h (0 Bft) W 266 0 min 0,000 mm 0,0 UV-I 0 W/m 4,8 C 5,8 C 1,6 km/h (1 Bft) 98,21 %
16.10.2015 05:35 5,8 C 94 % 1015,0 hPa 0,0 l/m 0,1 km/h (0 Bft) W 266 0 min 0,000 mm 0,0 UV-I 0 W/m 4,9 C 5,8 C 1,6 km/h (1 Bft) 100,00 %
16.10.2015 05:40 5,8 C 93 % 1015,0 hPa 0,0 l/m 0,2 km/h (0 Bft) W 266 0 min 0,000 mm 0,0 UV-I 0 W/m 4,8 C 5,8 C 1,6 km/h (1 Bft) 99,11 %
16.10.2015 05:45 5,8 C 93 % 1015,0 hPa 0,0 l/m 0,7 km/h (0 Bft) W 266 0 min 0,000 mm 0,0 UV-I 0 W/m 4,8 C 5,8 C 3,2 km/h (1 Bft) 99,19 %
16.10.2015 05:50 5,8 C 93 % 1015,0 hPa 0,0 l/m 0,7 km/h (0 Bft) W-NW 283 0 min 0,000 mm 0,0 UV-I 0 W/m 4,8 C 5,8 C 3,2 km/h (1 Bft) 99,11 %
16.10.2015 05:55 5,8 C 93 % 1014,9 hPa 0,0 l/m 0,5 km/h (0 Bft) N 11 0 min 0,000 mm 0,0 UV-I 0 W/m 4,8 C 5,8 C 3,2 km/h (1 Bft) 99,19 %
16.10.2015 06:00 5,8 C 93 % 1014,9 hPa 0,0 l/m 0,2 km/h (0 Bft) N-NO 31 0 min 0,000 mm 0,0 UV-I 0 W/m 4,8 C 5,8 C 1,6 km/h (1 Bft) 100,00 %
16.10.2015 06:05 5,8 C 92 % 1014,9 hPa 0,0 l/m 1,2 km/h (1 Bft) W-SW 251 0 min 0,000 mm 0,0 UV-I 0 W/m 4,6 C 5,8 C 3,2 km/h (1 Bft) 100,00 %
16.10.2015 06:10 5,8 C 93 % 1014,9 hPa 0,0 l/m 1,4 km/h (1 Bft) W 260 0 min 0,000 mm 0,0 UV-I 0 W/m 4,8 C 5,8 C 4,8 km/h (1 Bft) 100,00 %
16.10.2015 06:15 5,8 C 92 % 1014,8 hPa 0,0 l/m 1,2 km/h (1 Bft) W-SW 246 0 min 0,000 mm 0,0 UV-I 0 W/m 4,6 C 5,8 C 3,2 km/h (1 Bft) 100,00 %
16.10.2015 06:20 5,7 C 92 % 1014,8 hPa 0,0 l/m 1,7 km/h (1 Bft) W-NW 296 0 min 0,000 mm 0,0 UV-I 0 W/m 4,5 C 5,7 C 4,8 km/h (1 Bft) 99,11 %
16.10.2015 06:25 5,7 C 93 % 1014,8 hPa 0,0 l/m 1,2 km/h (1 Bft) W-NW 302 0 min 0,000 mm 0,0 UV-I 0 W/m 4,7 C 5,7 C 3,2 km/h (1 Bft) 99,17 %
16.10.2015 06:30 5,7 C 92 % 1014,9 hPa 0,0 l/m 2,0 km/h (1 Bft) SW 232 0 min 0,000 mm 0,0 UV-I 0 W/m 4,5 C 5,7 C 4,8 km/h (1 Bft) 100,00 %
16.10.2015 06:35 5,7 C 92 % 1014,9 hPa 0,0 l/m 1,3 km/h (1 Bft) W 262 0 min 0,000 mm 0,0 UV-I 0 W/m 4,5 C 5,7 C 3,2 km/h (1 Bft) 99,17 %
16.10.2015 06:40 5,7 C 92 % 1014,8 hPa 0,0 l/m 2,3 km/h (1 Bft) W-NW 290 0 min 0,000 mm 0,0 UV-I 0 W/m 4,5 C 5,7 C 4,8 km/h (1 Bft) 99,12 %
16.10.2015 06:45 5,6 C 92 % 1014,8 hPa 0,0 l/m 1,6 km/h (1 Bft) SW 235 0 min 0,000 mm 0,0 UV-I 0 W/m 4,4 C 5,6 C 3,2 km/h (1 Bft) 99,17 %
16.10.2015 06:50 5,6 C 92 % 1014,9 hPa 0,0 l/m 1,5 km/h (1 Bft) W 263 0 min 0,000 mm 0,0 UV-I 0 W/m 4,4 C 5,6 C 4,8 km/h (1 Bft) 99,06 %
16.10.2015 06:55 5,6 C 92 % 1014,9 hPa 0,0 l/m 0,9 km/h (0 Bft) W 263 0 min 0,000 mm 0,0 UV-I 0 W/m 4,4 C 5,6 C 3,2 km/h (1 Bft) 99,19 %
16.10.2015 07:00 5,6 C 92 % 1014,9 hPa 0,0 l/m 1,5 km/h (1 Bft) W 264 0 min 0,000 mm 0,0 UV-I 0 W/m 4,4 C 5,6 C 4,8 km/h (1 Bft) 100,00 %
16.10.2015 07:05 5,7 C 91 % 1014,9 hPa 0,0 l/m 0,8 km/h (0 Bft) W-SW 248 0 min 0,000 mm 0,0 UV-I 0 W/m 4,3 C 5,7 C 3,2 km/h (1 Bft) 98,17 %
16.10.2015 07:10 5,7 C 91 % 1015,0 hPa 0,0 l/m 1,2 km/h (1 Bft) W 273 0 min 0,000 mm 0,0 UV-I 0 W/m 4,3 C 5,7 C 3,2 km/h (1 Bft) 100,00 %
16.10.2015 07:15 5,6 C 92 % 1015,0 hPa 0,0 l/m 0,7 km/h (0 Bft) W 273 0 min 0,000 mm 0,0 UV-I 0 W/m 4,4 C 5,6 C 3,2 km/h (1 Bft) 98,21 %
16.10.2015 07:20 5,6 C 91 % 1015,0 hPa 0,0 l/m 0,8 km/h (0 Bft) W 269 0 min 0,000 mm 0,0 UV-I 0 W/m 4,2 C 5,6 C 3,2 km/h (1 Bft) 99,11 %
16.10.2015 07:25 5,7 C 92 % 1015,1 hPa 0,0 l/m 1,1 km/h (1 Bft) W 276 0 min 0,000 mm 0,0 UV-I 0 W/m 4,5 C 5,7 C 3,2 km/h (1 Bft) 98,37 %
16.10.2015 07:30 5,7 C 92 % 1015,3 hPa 0,0 l/m 0,6 km/h (0 Bft) W 273 0 min 0,000 mm 0,0 UV-I 0 W/m 4,5 C 5,7 C 3,2 km/h (1 Bft) 99,17 %
16.10.2015 07:35 5,7 C 91 % 1015,4 hPa 0,0 l/m 0,7 km/h (0 Bft) W 273 0 min 0,000 mm 0,0 UV-I 0 W/m 4,3 C 5,7 C 3,2 km/h (1 Bft) 98,25 %
16.10.2015 07:40 5,7 C 91 % 1015,4 hPa 0,0 l/m 1,2 km/h (1 Bft) W 273 0 min 0,000 mm 0,0 UV-I 3 W/m 4,3 C 5,7 C 3,2 km/h (1 Bft) 98,35 %
16.10.2015 07:45 5,7 C 92 % 1015,4 hPa 0,0 l/m 0,2 km/h (0 Bft) W 273 0 min 0,000 mm 0,0 UV-I 8 W/m 4,5 C 5,7 C 1,6 km/h (1 Bft) 100,00 %
16.10.2015 07:50 5,6 C 92 % 1015,4 hPa 0,0 l/m 1,5 km/h (1 Bft) W-NW 286 0 min 0,000 mm 0,0 UV-I 12 W/m 4,4 C 5,6 C 3,2 km/h (1 Bft) 99,21 %
16.10.2015 07:55 5,7 C 92 % 1015,4 hPa 0,0 l/m 1,3 km/h (1 Bft) W-NW 285 0 min 0,000 mm 0,0 UV-I 19 W/m 4,5 C 5,7 C 3,2 km/h (1 Bft) 100,00 %
16.10.2015 08:00 5,7 C 92 % 1015,4 hPa 0,0 l/m 0,7 km/h (0 Bft) W-SW 244 0 min 0,000 mm 0,0 UV-I 21 W/m 4,5 C 5,7 C 4,8 km/h (1 Bft) 100,00 %
16.10.2015 08:05 5,7 C 92 % 1015,4 hPa 0,0 l/m 2,7 km/h (1 Bft) SW 220 0 min 0,000 mm 0,0 UV-I 25 W/m 4,5 C 5,7 C 8,0 km/h (2 Bft) 99,11 %
16.10.2015 08:10 5,7 C 91 % 1015,5 hPa 0,0 l/m 1,6 km/h (1 Bft) W 261 0 min 0,000 mm 0,0 UV-I 23 W/m 4,3 C 5,7 C 3,2 km/h (1 Bft) 99,17 %
16.10.2015 08:15 5,7 C 91 % 1015,5 hPa 0,0 l/m 1,1 km/h (1 Bft) S-SW 202 0 min 0,000 mm 0,0 UV-I 25 W/m 4,3 C 5,7 C 3,2 km/h (1 Bft) 100,00 %
16.10.2015 08:20 5,7 C 92 % 1015,6 hPa 0,0 l/m 1,3 km/h (1 Bft) SW 227 0 min 0,000 mm 0,0 UV-I 28 W/m 4,5 C 5,7 C 4,8 km/h (1 Bft) 100,00 %
16.10.2015 08:25 5,7 C 91 % 1015,6 hPa 0,0 l/m 2,2 km/h (1 Bft) SW 228 0 min 0,000 mm 0,0 UV-I 35 W/m 4,3 C 5,7 C 4,8 km/h (1 Bft) 100,00 %
16.10.2015 08:30 5,8 C 92 % 1015,6 hPa 0,0 l/m 2,0 km/h (1 Bft) W 260 0 min 0,000 mm 0,0 UV-I 34 W/m 4,6 C 5,8 C 4,8 km/h (1 Bft) 98,20 %
16.10.2015 08:35 5,8 C 92 % 1015,7 hPa 0,0 l/m 1,6 km/h (1 Bft) W 278 0 min 0,000 mm 0,0 UV-I 35 W/m 4,6 C 5,8 C 3,2 km/h (1 Bft) 98,39 %
16.10.2015 08:40 5,8 C 92 % 1015,6 hPa 0,0 l/m 2,7 km/h (1 Bft) NW 306 0 min 0,000 mm 0,0 UV-I 46 W/m 4,6 C 5,8 C 6,4 km/h (2 Bft) 99,08 %
16.10.2015 08:45 5,8 C 92 % 1015,7 hPa 0,0 l/m 2,3 km/h (1 Bft) W-SW 254 0 min 0,000 mm 0,0 UV-I 43 W/m 4,6 C 5,8 C 4,8 km/h (1 Bft) 100,00 %
16.10.2015 08:50 5,8 C 92 % 1015,7 hPa 0,0 l/m 3,0 km/h (1 Bft) W-SW 257 0 min 0,000 mm 0,0 UV-I 30 W/m 4,6 C 5,8 C 6,4 km/h (2 Bft) 100,00 %
16.10.2015 08:55 5,8 C 92 % 1015,6 hPa 0,0 l/m 2,2 km/h (1 Bft) W-NW 284 0 min 0,000 mm 0,0 UV-I 22 W/m 4,6 C 5,8 C 4,8 km/h (1 Bft) 100,00 %
16.10.2015 09:00 5,8 C 92 % 1015,7 hPa 0,0 l/m 2,8 km/h (1 Bft) W 271 0 min 0,025 mm 0,0 UV-I 19 W/m 4,6 C 5,8 C 6,4 km/h (2 Bft) 100,00 %
16.10.2015 09:05 5,8 C 92 % 1015,7 hPa 0,0 l/m 2,7 km/h (1 Bft) W-SW 242 0 min 0,000 mm 0,0 UV-I 25 W/m 4,6 C 5,8 C 6,4 km/h (2 Bft) 100,00 %
16.10.2015 09:10 5,8 C 92 % 1015,8 hPa 0,0 l/m 3,7 km/h (1 Bft) SW 226 0 min 0,000 mm 0,0 UV-I 34 W/m 4,6 C 5,8 C 6,4 km/h (2 Bft) 100,00 %
16.10.2015 09:15 5,8 C 92 % 1015,8 hPa 0,0 l/m 4,3 km/h (1 Bft) W 260 0 min 0,000 mm 0,0 UV-I 32 W/m 4,6 C 5,8 C 11,3 km/h (2 Bft) 100,00 %
16.10.2015 09:20 5,8 C 92 % 1015,9 hPa 0,0 l/m 3,8 km/h (1 Bft) W-NW 286 0 min 0,000 mm 0,0 UV-I 32 W/m 4,6 C 5,8 C 8,0 km/h (2 Bft) 100,00 %
16.10.2015 09:25 5,8 C 92 % 1016,0 hPa 0,0 l/m 4,3 km/h (1 Bft) W 269 0 min 0,000 mm 0,0 UV-I 38 W/m 4,6 C 5,8 C 11,3 km/h (2 Bft) 99,12 %
16.10.2015 09:30 5,7 C 92 % 1015,9 hPa 0,0 l/m 3,7 km/h (1 Bft) W 267 0 min 0,000 mm 0,0 UV-I 34 W/m 4,5 C 5,7 C 9,7 km/h (2 Bft) 99,19 %
16.10.2015 09:35 5,7 C 92 % 1016,1 hPa 0,0 l/m 4,8 km/h (1 Bft) W 268 0 min 0,000 mm 0,0 UV-I 34 W/m 4,5 C 5,7 C 11,3 km/h (2 Bft) 100,00 %
16.10.2015 09:40 5,7 C 92 % 1016,2 hPa 0,0 l/m 2,9 km/h (1 Bft) NW 311 0 min 0,000 mm 0,0 UV-I 39 W/m 4,5 C 5,7 C 9,7 km/h (2 Bft) 98,35 %
16.10.2015 09:45 5,7 C 92 % 1016,3 hPa 0,0 l/m 3,2 km/h (1 Bft) SW 223 0 min 0,000 mm 0,0 UV-I 65 W/m 4,5 C 5,7 C 9,7 km/h (2 Bft) 99,11 %
16.10.2015 09:50 5,8 C 92 % 1016,3 hPa 0,0 l/m 1,7 km/h (1 Bft) W-SW 255 0 min 0,000 mm 0,0 UV-I 67 W/m 4,6 C 5,8 C 4,8 km/h (1 Bft) 100,00 %
16.10.2015 09:55 5,8 C 92 % 1016,4 hPa 0,0 l/m 1,9 km/h (1 Bft) W 271 0 min 0,000 mm 0,0 UV-I 46 W/m 4,6 C 5,8 C 6,4 km/h (2 Bft) 100,00 %
16.10.2015 10:00 5,8 C 92 % 1016,5 hPa 0,0 l/m 1,9 km/h (1 Bft) W-SW 250 0 min 0,026 mm 0,0 UV-I 35 W/m 4,6 C 5,8 C 4,8 km/h (1 Bft) 99,11 %
16.10.2015 10:05 5,8 C 92 % 1016,5 hPa 0,0 l/m 2,3 km/h (1 Bft) W-SW 252 0 min 0,000 mm 0,0 UV-I 32 W/m 4,6 C 5,8 C 4,8 km/h (1 Bft) 99,19 %
16.10.2015 10:10 5,8 C 92 % 1016,7 hPa 0,0 l/m 1,9 km/h (1 Bft) W 276 0 min 0,000 mm 0,0 UV-I 38 W/m 4,6 C 5,8 C 4,8 km/h (1 Bft) 100,00 %
16.10.2015 10:15 5,8 C 91 % 1016,6 hPa 0,0 l/m 2,1 km/h (1 Bft) W 275 0 min 0,000 mm 0,0 UV-I 56 W/m 4,4 C 5,8 C 4,8 km/h (1 Bft) 100,00 %
16.10.2015 10:20 5,8 C 91 % 1016,6 hPa 0,0 l/m 2,8 km/h (1 Bft) W 281 0 min 0,000 mm 0,0 UV-I 95 W/m 4,4 C 5,8 C 4,8 km/h (1 Bft) 99,28 %
16.10.2015 10:25 5,9 C 91 % 1016,6 hPa 0,0 l/m 3,5 km/h (1 Bft) SW 226 0 min 0,000 mm 0,0 UV-I 114 W/m 4,5 C 5,9 C 6,4 km/h (2 Bft) 100,00 %
16.10.2015 10:30 6,1 C 92 % 1016,6 hPa 0,0 l/m 1,8 km/h (1 Bft) W-NW 298 0 min 0,000 mm 0,0 UV-I 80 W/m 4,9 C 6,1 C 4,8 km/h (1 Bft) 99,08 %
16.10.2015 10:35 6,1 C 90 % 1016,5 hPa 0,0 l/m 3,1 km/h (1 Bft) NW 309 0 min 0,000 mm 0,4 UV-I 119 W/m 4,6 C 6,1 C 8,0 km/h (2 Bft) 99,22 %
16.10.2015 10:40 6,1 C 90 % 1016,5 hPa 0,0 l/m 2,6 km/h (1 Bft) W-NW 300 0 min 0,000 mm 0,6 UV-I 133 W/m 4,6 C 6,1 C 4,8 km/h (1 Bft) 99,13 %
16.10.2015 10:45 6,2 C 90 % 1016,5 hPa 0,0 l/m 2,7 km/h (1 Bft) SW 218 0 min 0,000 mm 0,6 UV-I 142 W/m 4,7 C 6,2 C 8,0 km/h (2 Bft) 98,25 %
16.10.2015 10:50 6,2 C 90 % 1016,4 hPa 0,0 l/m 3,0 km/h (1 Bft) W 266 0 min 0,000 mm 0,5 UV-I 130 W/m 4,7 C 6,2 C 9,7 km/h (2 Bft) 99,11 %
16.10.2015 10:55 6,3 C 90 % 1016,5 hPa 0,0 l/m 3,0 km/h (1 Bft) W-NW 287 0 min 0,000 mm 0,6 UV-I 137 W/m 4,8 C 6,3 C 6,4 km/h (2 Bft) 99,21 %
16.10.2015 11:00 6,2 C 89 % 1016,4 hPa 0,0 l/m 3,9 km/h (1 Bft) W-NW 294 0 min 0,051 mm 0,6 UV-I 137 W/m 4,5 C 6,2 C 6,4 km/h (2 Bft) 100,00 %
16.10.2015 11:05 6,3 C 90 % 1016,3 hPa 0,0 l/m 3,1 km/h (1 Bft) SW 236 0 min 0,000 mm 0,6 UV-I 118 W/m 4,8 C 6,3 C 6,4 km/h (2 Bft) 100,00 %
16.10.2015 11:10 6,4 C 88 % 1016,4 hPa 0,0 l/m 2,8 km/h (1 Bft) SW 222 0 min 0,000 mm 0,7 UV-I 153 W/m 4,6 C 6,4 C 9,7 km/h (2 Bft) 99,10 %
16.10.2015 11:15 6,3 C 88 % 1016,4 hPa 0,0 l/m 4,1 km/h (1 Bft) SW 229 0 min 0,000 mm 0,7 UV-I 155 W/m 4,5 C 6,3 C 9,7 km/h (2 Bft) 100,00 %
16.10.2015 11:20 6,3 C 89 % 1016,4 hPa 0,0 l/m 3,3 km/h (1 Bft) SW 227 0 min 0,000 mm 0,8 UV-I 186 W/m 4,6 C 6,3 C 9,7 km/h (2 Bft) 99,08 %
16.10.2015 11:25 6,6 C 89 % 1016,4 hPa 0,0 l/m 3,9 km/h (1 Bft) W-SW 244 0 min 0,000 mm 0,8 UV-I 190 W/m 4,9 C 6,6 C 8,0 km/h (2 Bft) 100,00 %
16.10.2015 11:30 6,6 C 88 % 1016,5 hPa 0,0 l/m 3,5 km/h (1 Bft) W 267 0 min 0,000 mm 0,8 UV-I 176 W/m 4,8 C 6,6 C 9,7 km/h (2 Bft) 100,00 %
16.10.2015 11:35 6,7 C 88 % 1016,4 hPa 0,0 l/m 3,7 km/h (1 Bft) W 279 0 min 0,000 mm 0,8 UV-I 164 W/m 4,9 C 6,7 C 11,3 km/h (2 Bft) 100,00 %
16.10.2015 11:40 6,6 C 88 % 1016,3 hPa 0,0 l/m 5,4 km/h (1 Bft) W 265 0 min 0,000 mm 0,8 UV-I 168 W/m 4,8 C 6,6 C 12,9 km/h (3 Bft) 100,00 %
16.10.2015 11:45 6,6 C 87 % 1016,4 hPa 0,0 l/m 4,0 km/h (1 Bft) SW 219 0 min 0,000 mm 0,7 UV-I 153 W/m 4,6 C 6,6 C 6,4 km/h (2 Bft) 100,00 %
16.10.2015 11:50 6,7 C 87 % 1016,4 hPa 0,0 l/m 3,1 km/h (1 Bft) W-SW 244 0 min 0,000 mm 0,7 UV-I 124 W/m 4,7 C 6,7 C 6,4 km/h (2 Bft) 100,00 %
16.10.2015 11:55 6,7 C 88 % 1016,5 hPa 0,0 l/m 3,6 km/h (1 Bft) W 279 0 min 0,000 mm 0,6 UV-I 122 W/m 4,9 C 6,7 C 9,7 km/h (2 Bft) 99,15 %
16.10.2015 12:00 6,7 C 88 % 1016,5 hPa 0,0 l/m 3,4 km/h (1 Bft) W 281 0 min 0,076 mm 0,6 UV-I 124 W/m 4,9 C 6,7 C 9,7 km/h (2 Bft) 98,17 %
16.10.2015 12:05 6,7 C 88 % 1016,5 hPa 0,0 l/m 2,7 km/h (1 Bft) W-SW 240 0 min 0,000 mm 0,6 UV-I 101 W/m 4,9 C 6,7 C 6,4 km/h (2 Bft) 100,00 %
16.10.2015 12:10 6,6 C 89 % 1016,6 hPa 0,0 l/m 3,4 km/h (1 Bft) W-SW 252 0 min 0,000 mm 0,5 UV-I 80 W/m 4,9 C 6,6 C 6,4 km/h (2 Bft) 100,00 %
16.10.2015 12:15 6,6 C 88 % 1016,5 hPa 0,0 l/m 2,8 km/h (1 Bft) W-NW 294 0 min 0,000 mm 0,6 UV-I 84 W/m 4,8 C 6,6 C 6,4 km/h (2 Bft) 99,11 %
16.10.2015 12:20 6,6 C 89 % 1016,4 hPa 0,0 l/m 2,0 km/h (1 Bft) W-SW 238 0 min 0,000 mm 0,5 UV-I 76 W/m 4,9 C 6,6 C 6,4 km/h (2 Bft) 100,00 %
16.10.2015 12:25 6,6 C 88 % 1016,4 hPa 0,0 l/m 3,8 km/h (1 Bft) W 274 0 min 0,000 mm 0,5 UV-I 96 W/m 4,8 C 6,6 C 9,7 km/h (2 Bft) 99,12 %
16.10.2015 12:30 6,5 C 88 % 1016,6 hPa 0,0 l/m 3,8 km/h (1 Bft) W-NW 284 0 min 0,000 mm 0,1 UV-I 56 W/m 4,7 C 6,5 C 11,3 km/h (2 Bft) 97,58 %
16.10.2015 12:35 6,3 C 88 % 1016,5 hPa 0,0 l/m 4,5 km/h (1 Bft) NW 309 0 min 0,000 mm 0,0 UV-I 49 W/m 4,5 C 6,3 C 12,9 km/h (3 Bft) 100,00 %
16.10.2015 12:40 6,3 C 88 % 1016,5 hPa 0,0 l/m 3,4 km/h (1 Bft) W-SW 240 0 min 0,000 mm 0,5 UV-I 97 W/m 4,5 C 6,3 C 9,7 km/h (2 Bft) 100,00 %
16.10.2015 12:45 6,3 C 88 % 1016,5 hPa 0,0 l/m 4,2 km/h (1 Bft) W 267 0 min 0,000 mm 0,6 UV-I 107 W/m 4,5 C 6,3 C 12,9 km/h (3 Bft) 100,00 %
16.10.2015 12:50 6,4 C 88 % 1016,5 hPa 0,0 l/m 2,6 km/h (1 Bft) NW 326 0 min 0,000 mm 0,6 UV-I 112 W/m 4,6 C 6,4 C 6,4 km/h (2 Bft) 99,08 %
16.10.2015 12:55 6,5 C 87 % 1016,5 hPa 0,0 l/m 3,1 km/h (1 Bft) W-SW 258 0 min 0,000 mm 0,2 UV-I 71 W/m 4,5 C 6,5 C 8,0 km/h (2 Bft) 100,00 %
16.10.2015 13:00 6,4 C 87 % 1016,5 hPa 0,0 l/m 4,9 km/h (1 Bft) W-SW 244 0 min 0,051 mm 0,0 UV-I 59 W/m 4,4 C 6,4 C 9,7 km/h (2 Bft) 100,00 %
16.10.2015 13:05 6,5 C 88 % 1016,4 hPa 0,0 l/m 3,3 km/h (1 Bft) SW 229 0 min 0,000 mm 0,0 UV-I 70 W/m 4,7 C 6,5 C 9,7 km/h (2 Bft) 98,33 %
16.10.2015 13:10 6,6 C 88 % 1016,4 hPa 0,0 l/m 4,4 km/h (1 Bft) W-SW 250 0 min 0,000 mm 0,5 UV-I 90 W/m 4,8 C 6,6 C 9,7 km/h (2 Bft) 99,11 %
16.10.2015 13:15 6,7 C 87 % 1016,5 hPa 0,0 l/m 3,2 km/h (1 Bft) W-NW 292 0 min 0,000 mm 0,7 UV-I 127 W/m 4,7 C 6,7 C 8,0 km/h (2 Bft) 99,13 %
16.10.2015 13:20 6,7 C 87 % 1016,5 hPa 0,0 l/m 6,1 km/h (2 Bft) W 271 0 min 0,000 mm 0,2 UV-I 84 W/m 4,7 C 6,7 C 12,9 km/h (3 Bft) 99,21 %
16.10.2015 13:25 6,7 C 86 % 1016,6 hPa 0,0 l/m 5,2 km/h (1 Bft) W-NW 301 0 min 0,000 mm 0,0 UV-I 81 W/m 4,5 C 6,7 C 11,3 km/h (2 Bft) 100,00 %
16.10.2015 13:30 6,6 C 86 % 1016,4 hPa 0,0 l/m 6,4 km/h (2 Bft) W 263 0 min 0,000 mm 0,0 UV-I 62 W/m 4,4 C 6,6 C 11,3 km/h (2 Bft) 99,13 %
16.10.2015 13:35 6,6 C 86 % 1016,4 hPa 0,0 l/m 5,8 km/h (2 Bft) W 264 0 min 0,000 mm 0,1 UV-I 84 W/m 4,4 C 6,6 C 11,3 km/h (2 Bft) 99,19 %
16.10.2015 13:40 6,6 C 86 % 1016,2 hPa 0,0 l/m 5,3 km/h (1 Bft) W 281 0 min 0,000 mm 0,5 UV-I 103 W/m 4,4 C 6,6 C 14,5 km/h (3 Bft) 100,00 %
16.10.2015 13:45 6,6 C 86 % 1016,2 hPa 0,0 l/m 6,2 km/h (2 Bft) W-SW 251 0 min 0,000 mm 0,6 UV-I 127 W/m 4,4 C 6,6 C 12,9 km/h (3 Bft) 99,15 %
16.10.2015 13:50 6,6 C 86 % 1016,3 hPa 0,0 l/m 6,1 km/h (2 Bft) W 267 0 min 0,000 mm 0,6 UV-I 118 W/m 4,4 C 6,6 C 16,1 km/h (3 Bft) 99,13 %
16.10.2015 13:55 6,6 C 86 % 1016,4 hPa 0,0 l/m 6,1 km/h (2 Bft) W 272 0 min 0,000 mm 0,7 UV-I 133 W/m 4,4 C 6,6 C 14,5 km/h (3 Bft) 100,00 %
16.10.2015 14:00 6,7 C 86 % 1016,5 hPa 0,0 l/m 5,3 km/h (1 Bft) NW 311 0 min 0,050 mm 0,7 UV-I 146 W/m 4,5 C 6,7 C 11,3 km/h (2 Bft) 100,00 %
16.10.2015 14:05 6,7 C 85 % 1016,7 hPa 0,0 l/m 5,2 km/h (1 Bft) W 259 0 min 0,000 mm 0,6 UV-I 88 W/m 4,4 C 6,7 C 12,9 km/h (3 Bft) 99,19 %
16.10.2015 14:10 6,6 C 86 % 1016,7 hPa 0,0 l/m 4,7 km/h (1 Bft) NW 311 0 min 0,000 mm 0,0 UV-I 68 W/m 4,4 C 6,6 C 11,3 km/h (2 Bft) 99,13 %
16.10.2015 14:15 6,6 C 86 % 1016,5 hPa 0,0 l/m 3,7 km/h (1 Bft) SW 221 0 min 0,000 mm 0,2 UV-I 85 W/m 4,4 C 6,6 C 9,7 km/h (2 Bft) 98,20 %
16.10.2015 14:20 6,6 C 86 % 1016,3 hPa 0,0 l/m 4,1 km/h (1 Bft) W 273 0 min 0,000 mm 0,6 UV-I 107 W/m 4,4 C 6,6 C 9,7 km/h (2 Bft) 98,26 %
16.10.2015 14:25 6,7 C 85 % 1016,3 hPa 0,0 l/m 6,0 km/h (2 Bft) W-SW 252 0 min 0,000 mm 0,5 UV-I 102 W/m 4,4 C 6,7 C 11,3 km/h (2 Bft) 100,00 %
16.10.2015 14:30 6,6 C 85 % 1016,2 hPa 0,0 l/m 6,8 km/h (2 Bft) W-NW 286 0 min 0,000 mm 0,4 UV-I 108 W/m 4,3 C 6,3 C 14,5 km/h (3 Bft) 99,21 %
16.10.2015 14:35 6,7 C 85 % 1016,2 hPa 0,0 l/m 5,5 km/h (1 Bft) W-SW 247 0 min 0,000 mm 0,7 UV-I 141 W/m 4,4 C 6,7 C 12,9 km/h (3 Bft) 100,00 %
16.10.2015 14:40 6,7 C 85 % 1016,1 hPa 0,0 l/m 5,5 km/h (1 Bft) W-NW 292 0 min 0,000 mm 0,6 UV-I 144 W/m 4,4 C 6,7 C 11,3 km/h (2 Bft) 100,00 %
16.10.2015 14:45 6,8 C 85 % 1016,2 hPa 0,0 l/m 4,2 km/h (1 Bft) W 267 0 min 0,000 mm 0,6 UV-I 179 W/m 4,5 C 6,8 C 11,3 km/h (2 Bft) 100,00 %
16.10.2015 14:50 6,8 C 85 % 1016,2 hPa 0,0 l/m 5,2 km/h (1 Bft) W-SW 240 0 min 0,000 mm 0,7 UV-I 207 W/m 4,5 C 6,8 C 9,7 km/h (2 Bft) 97,39 %
16.10.2015 14:55 6,9 C 84 % 1016,2 hPa 0,0 l/m 4,3 km/h (1 Bft) W-NW 286 0 min 0,000 mm 0,5 UV-I 125 W/m 4,4 C 6,9 C 9,7 km/h (2 Bft) 100,00 %
16.10.2015 15:00 6,8 C 85 % 1016,2 hPa 0,0 l/m 4,8 km/h (1 Bft) W 276 0 min 0,051 mm 0,2 UV-I 101 W/m 4,5 C 6,8 C 12,9 km/h (3 Bft) 100,00 %
16.10.2015 15:05 6,7 C 85 % 1016,4 hPa 0,0 l/m 3,0 km/h (1 Bft) O-NO 71 0 min 0,000 mm 0,5 UV-I 106 W/m 4,4 C 6,7 C 6,4 km/h (2 Bft) 99,12 %
16.10.2015 15:10 6,7 C 85 % 1016,4 hPa 0,0 l/m 2,2 km/h (1 Bft) SW 233 0 min 0,000 mm 0,0 UV-I 102 W/m 4,4 C 6,7 C 4,8 km/h (1 Bft) 99,17 %
16.10.2015 15:15 6,8 C 84 % 1016,4 hPa 0,0 l/m 2,6 km/h (1 Bft) S-SW 207 0 min 0,000 mm 0,0 UV-I 92 W/m 4,3 C 6,8 C 12,9 km/h (3 Bft) 99,13 %
16.10.2015 15:20 6,7 C 84 % 1016,4 hPa 0,0 l/m 4,8 km/h (1 Bft) W 271 0 min 0,000 mm 0,0 UV-I 71 W/m 4,2 C 6,7 C 8,0 km/h (2 Bft) 99,12 %
16.10.2015 15:25 6,7 C 85 % 1016,5 hPa 0,0 l/m 2,9 km/h (1 Bft) W 271 0 min 0,000 mm 0,0 UV-I 59 W/m 4,4 C 6,7 C 6,4 km/h (2 Bft) 100,00 %
16.10.2015 15:30 6,6 C 85 % 1016,5 hPa 0,0 l/m 2,2 km/h (1 Bft) SW 234 0 min 0,000 mm 0,0 UV-I 53 W/m 4,3 C 6,6 C 4,8 km/h (1 Bft) 100,00 %
16.10.2015 15:35 6,6 C 85 % 1016,6 hPa 0,0 l/m 3,1 km/h (1 Bft) W 281 0 min 0,000 mm 0,0 UV-I 48 W/m 4,3 C 6,6 C 8,0 km/h (2 Bft) 100,00 %
16.10.2015 15:40 6,5 C 86 % 1016,7 hPa 0,0 l/m 2,6 km/h (1 Bft) SW 234 0 min 0,000 mm 0,0 UV-I 34 W/m 4,3 C 6,5 C 6,4 km/h (2 Bft) 99,13 %
16.10.2015 15:45 6,4 C 87 % 1016,7 hPa 0,0 l/m 1,1 km/h (1 Bft) W 277 0 min 0,000 mm 0,0 UV-I 26 W/m 4,4 C 6,4 C 3,2 km/h (1 Bft) 99,11 %
16.10.2015 15:50 6,3 C 88 % 1016,7 hPa 0,0 l/m 1,1 km/h (1 Bft) NW 310 0 min 0,000 mm 0,0 UV-I 25 W/m 4,5 C 6,3 C 3,2 km/h (1 Bft) 100,00 %
16.10.2015 15:55 6,2 C 90 % 1016,7 hPa 0,2 l/m 1,1 km/h (1 Bft) W-SW 239 0 min 0,000 mm 0,0 UV-I 27 W/m 4,7 C 6,2 C 3,2 km/h (1 Bft) 99,19 %
16.10.2015 16:00 6,0 C 92 % 1016,6 hPa 0,4 l/m 1,2 km/h (1 Bft) W 261 0 min 0,026 mm 0,0 UV-I 49 W/m 4,8 C 6,0 C 3,2 km/h (1 Bft) 99,08 %
16.10.2015 16:05 5,9 C 93 % 1016,7 hPa 0,4 l/m 0,6 km/h (0 Bft) W 261 0 min 0,000 mm 0,0 UV-I 52 W/m 4,9 C 5,9 C 3,2 km/h (1 Bft) 99,17 %
16.10.2015 16:10 5,8 C 94 % 1016,6 hPa 0,2 l/m 0,7 km/h (0 Bft) W 278 0 min 0,000 mm 0,0 UV-I 71 W/m 4,9 C 5,8 C 1,6 km/h (1 Bft) 100,00 %
16.10.2015 16:15 5,9 C 94 % 1016,6 hPa 0,2 l/m 0,3 km/h (0 Bft) W 278 0 min 0,000 mm 0,0 UV-I 110 W/m 5,0 C 5,9 C 1,6 km/h (1 Bft) 98,41 %
16.10.2015 16:20 5,9 C 94 % 1016,7 hPa 0,4 l/m 1,1 km/h (1 Bft) W-NW 297 0 min 0,000 mm 0,0 UV-I 113 W/m 5,0 C 5,9 C 3,2 km/h (1 Bft) 99,08 %
16.10.2015 16:25 6,0 C 93 % 1016,7 hPa 0,0 l/m 1,6 km/h (1 Bft) W 266 0 min 0,000 mm 0,0 UV-I 87 W/m 5,0 C 6,0 C 4,8 km/h (1 Bft) 99,19 %
16.10.2015 16:30 5,9 C 93 % 1016,7 hPa 0,0 l/m 2,3 km/h (1 Bft) W 278 0 min 0,000 mm 0,0 UV-I 65 W/m 4,9 C 5,9 C 6,4 km/h (2 Bft) 100,00 %
16.10.2015 16:35 5,9 C 94 % 1016,7 hPa 0,0 l/m 1,3 km/h (1 Bft) W-SW 252 0 min 0,000 mm 0,0 UV-I 55 W/m 5,0 C 5,9 C 4,8 km/h (1 Bft) 100,00 %
16.10.2015 16:40 5,9 C 94 % 1016,7 hPa 0,0 l/m 1,4 km/h (1 Bft) W 261 0 min 0,000 mm 0,0 UV-I 45 W/m 5,0 C 5,9 C 3,2 km/h (1 Bft) 100,00 %
16.10.2015 16:45 5,9 C 93 % 1016,8 hPa 0,0 l/m 1,0 km/h (0 Bft) W 269 0 min 0,000 mm 0,0 UV-I 29 W/m 4,9 C 5,9 C 3,2 km/h (1 Bft) 99,21 %
16.10.2015 16:50 5,9 C 93 % 1016,7 hPa 0,0 l/m 0,7 km/h (0 Bft) W 269 0 min 0,000 mm 0,0 UV-I 30 W/m 4,9 C 5,9 C 1,6 km/h (1 Bft) 99,08 %
16.10.2015 16:55 5,8 C 93 % 1016,7 hPa 0,0 l/m 1,0 km/h (0 Bft) W 279 0 min 0,000 mm 0,0 UV-I 30 W/m 4,8 C 5,8 C 3,2 km/h (1 Bft) 99,19 %
16.10.2015 17:00 5,8 C 94 % 1016,6 hPa 0,0 l/m 1,2 km/h (1 Bft) W 273 0 min 0,025 mm 0,0 UV-I 28 W/m 4,9 C 5,8 C 3,2 km/h (1 Bft) 100,00 %
16.10.2015 17:05 5,8 C 94 % 1016,6 hPa 0,0 l/m 1,4 km/h (1 Bft) W 267 0 min 0,000 mm 0,0 UV-I 24 W/m 4,9 C 5,8 C 3,2 km/h (1 Bft) 100,00 %
16.10.2015 17:10 5,8 C 94 % 1016,7 hPa 0,0 l/m 1,1 km/h (1 Bft) W-NW 302 0 min 0,000 mm 0,0 UV-I 22 W/m 4,9 C 5,8 C 3,2 km/h (1 Bft) 100,00 %
16.10.2015 17:15 5,9 C 93 % 1016,6 hPa 0,0 l/m 2,6 km/h (1 Bft) W 275 0 min 0,000 mm 0,0 UV-I 18 W/m 4,9 C 5,9 C 4,8 km/h (1 Bft) 99,19 %
16.10.2015 17:20 5,9 C 94 % 1016,5 hPa 0,0 l/m 1,8 km/h (1 Bft) W 259 0 min 0,000 mm 0,0 UV-I 20 W/m 5,0 C 5,9 C 3,2 km/h (1 Bft) 100,00 %
16.10.2015 17:25 5,8 C 93 % 1016,5 hPa 0,0 l/m 2,0 km/h (1 Bft) W-SW 256 0 min 0,000 mm 0,0 UV-I 24 W/m 4,8 C 5,8 C 4,8 km/h (1 Bft) 100,00 %
16.10.2015 17:30 5,8 C 93 % 1016,5 hPa 0,0 l/m 2,6 km/h (1 Bft) W 264 0 min 0,000 mm 0,0 UV-I 21 W/m 4,8 C 5,8 C 4,8 km/h (1 Bft) 100,00 %
16.10.2015 17:35 5,8 C 93 % 1016,6 hPa 0,0 l/m 2,0 km/h (1 Bft) W-NW 296 0 min 0,000 mm 0,0 UV-I 18 W/m 4,8 C 5,8 C 4,8 km/h (1 Bft) 99,15 %
16.10.2015 17:40 5,8 C 93 % 1016,6 hPa 0,0 l/m 2,2 km/h (1 Bft) W 265 0 min 0,000 mm 0,0 UV-I 17 W/m 4,8 C 5,8 C 4,8 km/h (1 Bft) 100,00 %
16.10.2015 17:45 5,8 C 93 % 1016,7 hPa 0,0 l/m 2,4 km/h (1 Bft) W 265 0 min 0,000 mm 0,0 UV-I 12 W/m 4,8 C 5,8 C 4,8 km/h (1 Bft) 98,31 %
16.10.2015 17:50 5,8 C 93 % 1016,7 hPa 0,0 l/m 1,6 km/h (1 Bft) W-SW 252 0 min 0,000 mm 0,0 UV-I 11 W/m 4,8 C 5,8 C 3,2 km/h (1 Bft) 99,06 %
16.10.2015 17:55 5,8 C 94 % 1016,6 hPa 0,0 l/m 2,1 km/h (1 Bft) W 277 0 min 0,000 mm 0,0 UV-I 9 W/m 4,9 C 5,8 C 3,2 km/h (1 Bft) 99,15 %
16.10.2015 18:00 5,8 C 94 % 1016,5 hPa 0,0 l/m 2,6 km/h (1 Bft) W 273 0 min 0,000 mm 0,0 UV-I 7 W/m 4,9 C 5,8 C 4,8 km/h (1 Bft) 100,00 %
16.10.2015 18:05 5,7 C 94 % 1016,5 hPa 0,0 l/m 2,6 km/h (1 Bft) W 264 0 min 0,000 mm 0,0 UV-I 5 W/m 4,8 C 5,7 C 6,4 km/h (2 Bft) 100,00 %
16.10.2015 18:10 5,7 C 94 % 1016,5 hPa 0,0 l/m 2,0 km/h (1 Bft) W-SW 240 0 min 0,000 mm 0,0 UV-I 2 W/m 4,8 C 5,7 C 6,4 km/h (2 Bft) 98,29 %
16.10.2015 18:15 5,7 C 94 % 1016,7 hPa 0,0 l/m 1,5 km/h (1 Bft) SW 228 0 min 0,000 mm 0,0 UV-I 0 W/m 4,8 C 5,7 C 4,8 km/h (1 Bft) 98,31 %
16.10.2015 18:20 5,8 C 94 % 1016,9 hPa 0,0 l/m 1,5 km/h (1 Bft) W-SW 246 0 min 0,000 mm 0,0 UV-I 0 W/m 4,9 C 5,8 C 4,8 km/h (1 Bft) 99,15 %
16.10.2015 18:25 5,8 C 93 % 1016,9 hPa 0,0 l/m 1,9 km/h (1 Bft) SW 232 0 min 0,000 mm 0,0 UV-I 0 W/m 4,8 C 5,8 C 3,2 km/h (1 Bft) 100,00 %
16.10.2015 18:30 5,8 C 93 % 1016,9 hPa 0,0 l/m 2,0 km/h (1 Bft) W 276 0 min 0,000 mm 0,0 UV-I 0 W/m 4,8 C 5,8 C 4,8 km/h (1 Bft) 99,08 %
16.10.2015 18:35 5,8 C 93 % 1016,9 hPa 0,0 l/m 1,9 km/h (1 Bft) SW 232 0 min 0,000 mm 0,0 UV-I 0 W/m 4,8 C 5,8 C 4,8 km/h (1 Bft) 99,15 %
16.10.2015 18:40 5,8 C 93 % 1017,0 hPa 0,0 l/m 1,9 km/h (1 Bft) W-NW 290 0 min 0,000 mm 0,0 UV-I 0 W/m 4,8 C 5,8 C 4,8 km/h (1 Bft) 99,17 %
16.10.2015 18:45 5,8 C 93 % 1017,0 hPa 0,0 l/m 1,7 km/h (1 Bft) W-SW 255 0 min 0,000 mm 0,0 UV-I 0 W/m 4,8 C 5,8 C 3,2 km/h (1 Bft) 100,00 %
16.10.2015 18:50 5,8 C 93 % 1017,1 hPa 0,0 l/m 1,2 km/h (1 Bft) SW 217 0 min 0,000 mm 0,0 UV-I 0 W/m 4,8 C 5,8 C 4,8 km/h (1 Bft) 97,44 %
16.10.2015 18:55 5,8 C 93 % 1017,1 hPa 0,0 l/m 2,1 km/h (1 Bft) W-SW 248 0 min 0,000 mm 0,0 UV-I 0 W/m 4,8 C 5,8 C 4,8 km/h (1 Bft) 99,15 %
16.10.2015 19:00 5,8 C 93 % 1017,1 hPa 0,0 l/m 1,8 km/h (1 Bft) W-SW 258 0 min 0,000 mm 0,0 UV-I 0 W/m 4,8 C 5,8 C 4,8 km/h (1 Bft) 98,31 %
16.10.2015 19:05 5,8 C 93 % 1017,0 hPa 0,0 l/m 2,8 km/h (1 Bft) W 281 0 min 0,000 mm 0,0 UV-I 0 W/m 4,8 C 5,8 C 6,4 km/h (2 Bft) 97,50 %
16.10.2015 19:10 5,8 C 93 % 1017,1 hPa 0,0 l/m 2,7 km/h (1 Bft) W-SW 252 0 min 0,000 mm 0,0 UV-I 0 W/m 4,8 C 5,8 C 4,8 km/h (1 Bft) 99,06 %
16.10.2015 19:15 5,8 C 93 % 1017,2 hPa 0,0 l/m 2,1 km/h (1 Bft) W 271 0 min 0,000 mm 0,0 UV-I 0 W/m 4,8 C 5,8 C 4,8 km/h (1 Bft) 100,00 %
16.10.2015 19:20 5,8 C 94 % 1017,2 hPa 0,0 l/m 1,9 km/h (1 Bft) W 261 0 min 0,000 mm 0,0 UV-I 0 W/m 4,9 C 5,8 C 4,8 km/h (1 Bft) 100,00 %
16.10.2015 19:25 5,8 C 94 % 1017,2 hPa 0,0 l/m 1,9 km/h (1 Bft) W-SW 252 0 min 0,000 mm 0,0 UV-I 0 W/m 4,9 C 5,8 C 4,8 km/h (1 Bft) 98,40 %
16.10.2015 19:30 5,8 C 94 % 1017,3 hPa 0,0 l/m 1,6 km/h (1 Bft) W-SW 257 0 min 0,000 mm 0,0 UV-I 0 W/m 4,9 C 5,8 C 4,8 km/h (1 Bft) 98,29 %
16.10.2015 19:35 5,9 C 93 % 1017,4 hPa 0,0 l/m 2,4 km/h (1 Bft) S-SW 211 0 min 0,000 mm 0,0 UV-I 0 W/m 4,9 C 5,9 C 4,8 km/h (1 Bft) 99,15 %
16.10.2015 19:40 5,9 C 93 % 1017,4 hPa 0,0 l/m 1,1 km/h (1 Bft) W-SW 253 0 min 0,000 mm 0,0 UV-I 0 W/m 4,9 C 5,9 C 3,2 km/h (1 Bft) 98,31 %
16.10.2015 19:45 5,9 C 94 % 1017,3 hPa 0,0 l/m 1,6 km/h (1 Bft) W-NW 291 0 min 0,000 mm 0,0 UV-I 0 W/m 5,0 C 5,9 C 3,2 km/h (1 Bft) 96,58 %
16.10.2015 19:50 5,8 C 94 % 1017,1 hPa 0,0 l/m 2,9 km/h (1 Bft) W 267 0 min 0,000 mm 0,0 UV-I 0 W/m 4,9 C 5,8 C 4,8 km/h (1 Bft) 99,08 %
16.10.2015 19:55 5,8 C 94 % 1017,3 hPa 0,0 l/m 2,1 km/h (1 Bft) W 262 0 min 0,000 mm 0,0 UV-I 0 W/m 4,9 C 5,8 C 4,8 km/h (1 Bft) 99,15 %
16.10.2015 20:00 5,8 C 94 % 1017,3 hPa 0,0 l/m 2,2 km/h (1 Bft) W-SW 250 0 min 0,000 mm 0,0 UV-I 0 W/m 4,9 C 5,8 C 4,8 km/h (1 Bft) 98,33 %
16.10.2015 20:05 5,9 C 94 % 1017,3 hPa 0,0 l/m 2,7 km/h (1 Bft) W-SW 240 0 min 0,000 mm 0,0 UV-I 0 W/m 5,0 C 5,9 C 6,4 km/h (2 Bft) 99,15 %
16.10.2015 20:10 5,9 C 94 % 1017,4 hPa 0,0 l/m 1,6 km/h (1 Bft) SW 231 0 min 0,000 mm 0,0 UV-I 0 W/m 5,0 C 5,9 C 3,2 km/h (1 Bft) 99,17 %
16.10.2015 20:15 5,9 C 94 % 1017,4 hPa 0,0 l/m 1,5 km/h (1 Bft) W-SW 254 0 min 0,000 mm 0,0 UV-I 0 W/m 5,0 C 5,9 C 3,2 km/h (1 Bft) 99,11 %
16.10.2015 20:20 5,9 C 94 % 1017,6 hPa 0,0 l/m 2,3 km/h (1 Bft) SW 233 0 min 0,000 mm 0,0 UV-I 0 W/m 5,0 C 5,9 C 4,8 km/h (1 Bft) 98,31 %
16.10.2015 20:25 6,0 C 94 % 1017,6 hPa 0,0 l/m 1,5 km/h (1 Bft) SW 223 0 min 0,000 mm 0,0 UV-I 0 W/m 5,1 C 6,0 C 4,8 km/h (1 Bft) 99,17 %
16.10.2015 20:30 6,0 C 94 % 1017,6 hPa 0,0 l/m 2,0 km/h (1 Bft) W-SW 244 0 min 0,000 mm 0,0 UV-I 0 W/m 5,1 C 6,0 C 4,8 km/h (1 Bft) 99,15 %
16.10.2015 20:35 6,0 C 94 % 1017,5 hPa 0,0 l/m 1,4 km/h (1 Bft) W-SW 252 0 min 0,000 mm 0,0 UV-I 0 W/m 5,1 C 6,0 C 3,2 km/h (1 Bft) 100,00 %
16.10.2015 20:40 5,9 C 94 % 1017,6 hPa 0,0 l/m 2,4 km/h (1 Bft) SW 227 0 min 0,000 mm 0,0 UV-I 0 W/m 5,0 C 5,9 C 4,8 km/h (1 Bft) 98,15 %
16.10.2015 20:45 5,9 C 94 % 1017,8 hPa 0,0 l/m 3,1 km/h (1 Bft) SW 220 0 min 0,000 mm 0,0 UV-I 0 W/m 5,0 C 5,9 C 6,4 km/h (2 Bft) 99,17 %
16.10.2015 20:50 6,0 C 94 % 1017,8 hPa 0,0 l/m 3,4 km/h (1 Bft) S-SW 210 0 min 0,000 mm 0,0 UV-I 0 W/m 5,1 C 6,0 C 6,4 km/h (2 Bft) 99,17 %
16.10.2015 20:55 6,0 C 95 % 1017,8 hPa 0,0 l/m 1,4 km/h (1 Bft) W 268 0 min 0,000 mm 0,0 UV-I 0 W/m 5,3 C 6,0 C 3,2 km/h (1 Bft) 97,25 %
16.10.2015 21:00 6,0 C 95 % 1017,7 hPa 0,0 l/m 2,8 km/h (1 Bft) W 261 0 min 0,000 mm 0,0 UV-I 0 W/m 5,3 C 6,0 C 6,4 km/h (2 Bft) 100,00 %
16.10.2015 21:05 6,0 C 95 % 1017,7 hPa 0,0 l/m 3,1 km/h (1 Bft) W-SW 242 0 min 0,000 mm 0,0 UV-I 0 W/m 5,3 C 6,0 C 6,4 km/h (2 Bft) 98,29 %
16.10.2015 21:10 6,0 C 95 % 1017,8 hPa 0,0 l/m 2,4 km/h (1 Bft) W 270 0 min 0,000 mm 0,0 UV-I 0 W/m 5,3 C 6,0 C 4,8 km/h (1 Bft) 98,43 %
16.10.2015 21:15 6,0 C 95 % 1018,0 hPa 0,0 l/m 2,3 km/h (1 Bft) SW 223 0 min 0,000 mm 0,0 UV-I 0 W/m 5,3 C 6,0 C 4,8 km/h (1 Bft) 99,06 %
16.10.2015 21:20 6,0 C 95 % 1018,0 hPa 0,2 l/m 2,3 km/h (1 Bft) SW 222 0 min 0,000 mm 0,0 UV-I 0 W/m 5,3 C 6,0 C 4,8 km/h (1 Bft) 97,44 %
16.10.2015 21:25 5,9 C 95 % 1018,0 hPa 0,0 l/m 3,1 km/h (1 Bft) S-SW 211 0 min 0,000 mm 0,0 UV-I 0 W/m 5,2 C 5,9 C 6,4 km/h (2 Bft) 99,15 %
16.10.2015 21:30 5,9 C 95 % 1018,0 hPa 0,2 l/m 4,2 km/h (1 Bft) SW 215 0 min 0,000 mm 0,0 UV-I 0 W/m 5,2 C 5,9 C 6,4 km/h (2 Bft) 100,00 %
16.10.2015 21:35 5,9 C 95 % 1018,1 hPa 0,0 l/m 3,8 km/h (1 Bft) W-SW 240 0 min 0,000 mm 0,0 UV-I 0 W/m 5,2 C 5,9 C 8,0 km/h (2 Bft) 98,29 %
16.10.2015 21:40 5,9 C 95 % 1018,2 hPa 0,0 l/m 4,5 km/h (1 Bft) W-SW 249 0 min 0,000 mm 0,0 UV-I 0 W/m 5,2 C 5,9 C 9,7 km/h (2 Bft) 98,35 %
16.10.2015 21:45 5,9 C 95 % 1018,4 hPa 0,0 l/m 2,6 km/h (1 Bft) SW 232 0 min 0,000 mm 0,0 UV-I 0 W/m 5,2 C 5,9 C 8,0 km/h (2 Bft) 100,00 %
16.10.2015 21:50 5,9 C 95 % 1018,4 hPa 0,2 l/m 4,1 km/h (1 Bft) W 262 0 min 0,000 mm 0,0 UV-I 0 W/m 5,2 C 5,9 C 9,7 km/h (2 Bft) 100,00 %
16.10.2015 21:55 5,9 C 95 % 1018,6 hPa 0,0 l/m 2,9 km/h (1 Bft) SW 227 0 min 0,000 mm 0,0 UV-I 0 W/m 5,2 C 5,9 C 4,8 km/h (1 Bft) 97,46 %
16.10.2015 22:00 5,8 C 93 % 1018,6 hPa 0,0 l/m 4,9 km/h (1 Bft) W-SW 257 0 min 0,000 mm 0,0 UV-I 0 W/m 4,8 C 5,8 C 14,5 km/h (3 Bft) 98,29 %
16.10.2015 22:05 5,7 C 93 % 1018,7 hPa 0,0 l/m 4,4 km/h (1 Bft) W-SW 242 0 min 0,000 mm 0,0 UV-I 0 W/m 4,7 C 5,7 C 11,3 km/h (2 Bft) 99,15 %
16.10.2015 22:10 5,7 C 92 % 1018,7 hPa 0,0 l/m 4,7 km/h (1 Bft) W-SW 252 0 min 0,000 mm 0,0 UV-I 0 W/m 4,5 C 5,7 C 11,3 km/h (2 Bft) 100,00 %
16.10.2015 22:15 5,6 C 92 % 1018,7 hPa 0,0 l/m 5,3 km/h (1 Bft) W 263 0 min 0,000 mm 0,0 UV-I 0 W/m 4,4 C 5,6 C 6,4 km/h (2 Bft) 100,00 %
16.10.2015 22:25 5,4 C 93 % 1018,7 hPa 0,2 l/m 2,2 km/h (1 Bft) SW 235 0 min 0,000 mm 0,0 UV-I 0 W/m 4,4 C 5,4 C 4,8 km/h (1 Bft) 98,85 %
16.10.2015 22:30 5,4 C 93 % 1018,7 hPa 0,0 l/m 3,2 km/h (1 Bft) W 262 0 min 0,000 mm 0,0 UV-I 0 W/m 4,4 C 5,4 C 4,8 km/h (1 Bft) 99,08 %
16.10.2015 22:35 5,3 C 94 % 1018,7 hPa 0,0 l/m 3,0 km/h (1 Bft) SW 231 0 min 0,000 mm 0,0 UV-I 0 W/m 4,4 C 5,3 C 6,4 km/h (2 Bft) 100,00 %
16.10.2015 22:40 5,3 C 94 % 1018,7 hPa 0,0 l/m 2,5 km/h (1 Bft) SW 223 0 min 0,000 mm 0,0 UV-I 0 W/m 4,4 C 5,3 C 6,4 km/h (2 Bft) 100,00 %
16.10.2015 22:45 5,3 C 94 % 1018,6 hPa 0,0 l/m 1,6 km/h (1 Bft) W-SW 240 0 min 0,000 mm 0,0 UV-I 0 W/m 4,4 C 5,3 C 4,8 km/h (1 Bft) 99,11 %
16.10.2015 22:50 5,2 C 95 % 1018,6 hPa 0,0 l/m 1,2 km/h (1 Bft) SW 235 0 min 0,000 mm 0,0 UV-I 0 W/m 4,5 C 5,2 C 3,2 km/h (1 Bft) 100,00 %
16.10.2015 22:55 5,2 C 95 % 1018,6 hPa 0,0 l/m 1,1 km/h (1 Bft) W-SW 248 0 min 0,000 mm 0,0 UV-I 0 W/m 4,5 C 5,2 C 3,2 km/h (1 Bft) 99,12 %
16.10.2015 23:00 5,2 C 95 % 1018,6 hPa 0,0 l/m 1,4 km/h (1 Bft) W 266 0 min 0,000 mm 0,0 UV-I 0 W/m 4,5 C 5,2 C 3,2 km/h (1 Bft) 100,00 %
16.10.2015 23:05 5,2 C 95 % 1018,5 hPa 0,0 l/m 1,4 km/h (1 Bft) W-SW 247 0 min 0,000 mm 0,0 UV-I 0 W/m 4,5 C 5,2 C 3,2 km/h (1 Bft) 98,21 %
16.10.2015 23:10 5,2 C 95 % 1018,6 hPa 0,0 l/m 1,8 km/h (1 Bft) W-SW 242 0 min 0,000 mm 0,0 UV-I 0 W/m 4,5 C 5,2 C 3,2 km/h (1 Bft) 99,19 %
16.10.2015 23:15 5,2 C 95 % 1018,6 hPa 0,0 l/m 1,8 km/h (1 Bft) W-SW 246 0 min 0,000 mm 0,0 UV-I 0 W/m 4,5 C 5,2 C 4,8 km/h (1 Bft) 98,21 %
16.10.2015 23:20 5,2 C 95 % 1018,6 hPa 0,0 l/m 2,1 km/h (1 Bft) SW 225 0 min 0,000 mm 0,0 UV-I 0 W/m 4,5 C 5,2 C 4,8 km/h (1 Bft) 99,06 %
16.10.2015 23:25 5,1 C 95 % 1018,6 hPa 0,0 l/m 1,8 km/h (1 Bft) SW 223 0 min 0,000 mm 0,0 UV-I 0 W/m 4,4 C 5,1 C 4,8 km/h (1 Bft) 98,55 %
16.10.2015 23:30 5,1 C 95 % 1018,6 hPa 0,0 l/m 1,9 km/h (1 Bft) SW 236 0 min 0,000 mm 0,0 UV-I 0 W/m 4,4 C 5,1 C 4,8 km/h (1 Bft) 99,08 %
16.10.2015 23:35 5,1 C 95 % 1018,6 hPa 0,0 l/m 3,3 km/h (1 Bft) S-SW 202 0 min 0,000 mm 0,0 UV-I 0 W/m 4,4 C 5,1 C 4,8 km/h (1 Bft) 98,41 %
16.10.2015 23:40 5,1 C 95 % 1018,6 hPa 0,0 l/m 1,8 km/h (1 Bft) S-SW 205 0 min 0,000 mm 0,0 UV-I 0 W/m 4,4 C 5,1 C 4,8 km/h (1 Bft) 99,08 %
16.10.2015 23:45 4,9 C 95 % 1018,5 hPa 0,0 l/m 1,4 km/h (1 Bft) SW 221 0 min 0,000 mm 0,0 UV-I 0 W/m 4,2 C 4,9 C 3,2 km/h (1 Bft) 100,00 %
16.10.2015 23:50 4,9 C 95 % 1018,5 hPa 0,0 l/m 1,2 km/h (1 Bft) S 185 0 min 0,000 mm 0,0 UV-I 0 W/m 4,2 C 4,9 C 3,2 km/h (1 Bft) 97,50 %
16.10.2015 23:55 4,9 C 95 % 1018,6 hPa 0,0 l/m 2,6 km/h (1 Bft) S 190 0 min 0,000 mm 0,0 UV-I 0 W/m 4,2 C 4,9 C 4,8 km/h (1 Bft) 100,00 %
_ Min-Zeit 23:45 14:55 00:05 - 04:50 - - - - - - 23:45 23:45 04:50 19:45
Minimum _ 4,9 C 84 % 1014,1 hPa - 0,0 km/h (0 Bft) - - - - - - 4,2 C 4,9 C 0,0 km/h (0 Bft) 96,58 %
_ Max-Zeit 14:55 20:55 22:05 16:00 14:30 - - 00:00 12:00 11:20 14:50 00:45 14:55 13:50 00:00
Maximum _ 6,9 C 95 % 1018,7 hPa 0,4 l/m 6,8 km/h
W-NW (2 Bft)
- - 0 min 0,076 mm 0,8 UV-I 207 W/m 5,4 C 6,9 C 16,1 km/h
W-SW (3 Bft)
100,00 %
Durchschnitt _ 6,0 C 91 % 1016,2 hPa #2,6 l/m 2,6 km/h (1 Bft) W - #0 min. #0,381 mm 0,6 UV-I 73 W/m 4,7 C 6,0 C 6,3 km/h (2 Bft) 99,30 %